Hourly Weather Roundup
Issued by NWS Central Illinois

Home | Current Version | Previous Version | Text Only | Print | Product List | Glossary On
Versions: 1 2 3 4 5 6 7 8 9 10 11 12 13 14 15 16 17 18 19 20 21 22 23 24 25 26 27 28 29 30 31 32 33 34 35 36 37 38 39 40 41 42 43 44 45 46 47 48 49 50
000
NZUS43 KILX 251510
HWRILX

Area Weather Roundup
National Weather Service Lincoln IL
1000 AM CDT MON SEP 25 2017

NOTE:  "FAIR" indicates few or no clouds below 12,000 feet, with
       no sigificant weather and/or obstructions to visibility.


CITY           SKY/WX    TMP DP  RH WIND       PRES   REMARKS
Bloomington    SUNNY     79  67  66 S8        30.04S HX  81
Champaign      SUNNY     83  63  50 SE3       30.04F HX  84
Danville       SUNNY     79  62  55 CALM      30.03F HX  80
Decatur        SUNNY     80  66  62 S6        30.03F HX  82
Effingham      SUNNY     82  65  55 CALM      30.05F HX  84
Flora          SUNNY     82  65  58 CALM      30.04F HX  83
Galesburg      SUNNY     78  66  65 S6        30.00F HX  80
Jacksonville   SUNNY     81  64  56 S5        30.02S HX  82
Lacon          SUNNY     81  65  57 CALM      30.00F HX  83
Lawrenceville  SUNNY     82  67  60 W5        30.05S HX  84
Litchfield     SUNNY     79  66  64 SW6       30.03F HX  81
$$


CITY           SKY/WX    TMP DP  RH WIND       PRES   REMARKS
Lincoln        SUNNY     80  67  64 S6        30.02F HX  83
Macomb         SUNNY     79  65  61 SW5       30.02S HX  81
Mattoon        SUNNY     82  67  60 CALM      30.03F HX  84
Mt Carmel AP   SUNNY     81  64  56 W3        30.04S HX  83
Olney-Noble AP SUNNY     81  63  54 CALM      30.05S HX  82
Paris AP       MOSUNNY   79  65  62 CALM      30.05F HX  80
Peoria         SUNNY     79  66  64 S5        30.01S HX  81
Pontiac        SUNNY     80  67  65 S5        30.03S HX  83
Rantoul        SUNNY     82  65  57 CALM      30.04F HX  83
Robinson       MOSUNNY   80  66  62 CALM      30.06S HX  81
Springfield    SUNNY     82  66  58 S3        30.02S HX  84
Taylorville    SUNNY     83  65  55 S5        30.03S HX  84
$$

...REGIONAL REPORTS...


CITY           SKY/WX    TMP DP  RH WIND       PRES   REMARKS
Chicago O`Hare MOSUNNY   81  61  50 VRB5      30.01F HX  82
Kankakee       MOSUNNY   79  63  57 S5        30.04F HX  80
Moline         SUNNY     78  65  63 S5        29.98S HX  80
Mount Sterling SUNNY     76  66  69 S6        30.01S
Mount Vernon     N/A     80  68  66 S5        30.04S HX  83
Pittsfield     SUNNY     79  66  64 S6        30.03S HX  81
Quincy         MOSUNNY   79  65  62 S9        30.00S HX  81
Rockford       MOSUNNY   73  63  70 CALM      30.02S
$$


CITY           SKY/WX    TMP DP  RH WIND       PRES   REMARKS
Burlington     SUNNY     78  68  71 S5        29.98S HX  80
Cedar Rapids   SUNNY     78  65  63 VRB6      29.96F HX  80
Des Moines     MOSUNNY   74  65  73 CALM      29.94F
Kirksville     PTSUNNY   76  66  71 SW9       30.00R
Ottumwa        CLOUDY    76  65  68 CALM      29.96F
St Louis       MOSUNNY   83  67  58 SW9       30.03S HX  85
$$


CITY           SKY/WX    TMP DP  RH WIND       PRES   REMARKS
Terre Haute    SUNNY     81  63  54 W6        30.05S HX  82
Evansville     SUNNY     81  67  62 CALM      30.05S HX  83
Indianapolis   MOSUNNY   79  61  53 CALM      30.06S HX  80
Lafayette      PTSUNNY   74  63  68 CALM      30.05S
Madison        MOSUNNY   77  63  61 S5        29.99F
Milwaukee      MOSUNNY   83  62  49 S5        30.01S HX  84
$$





USA.gov is the U.S. government's official web portal to all federal, state and local government web resources and services.